カタログに戻る

THORAD AGENA D DEB

運用中PO
NORAD 4855·DEBRIS·🇺🇸 United States

打ち上げ Apr 8, 1970 から Vandenberg Space Force Base

Loading…

次のパス

TLE

Source: Space-Track
1 04855U 70025EK  26218.81241045  .00000343  00000-0  41045-3 0  9997
2 04855  99.9529 174.1793 0014515 293.7020 126.5118 13.74869275803937

AllMySatでTHORAD AGENA D DEBをリアルタイム追跡

Download on the App Store